Weather History for Rhinelander, WI

Change the Weather History Date:

Tuesday, July 2, 2013

  Actual Average Record
Temperature  
Mean Temperature 63 °F 66 °F  
Max Temperature 77 °F 78 °F 98 °F (1911)
Min Temperature 49 °F 54 °F 37 °F (2001)
Degree Days  
Heating Degree Days 2 2  
Month to date heating degree days 3 4  
Since 1 June heating degree days 177 138  
Since 1 July heating degree days 3 4  
Cooling Degree Days 0 3  
Month to date cooling degree days 0 6  
Year to date cooling degree days 54 71  
Since 1 June cooling degree days 40 59  
Growing Degree Days 12 (Base 50)    
Moisture  
Dew Point 44 °F    
Average Humidity 51    
Maximum Humidity 77    
Minimum Humidity 25    
Precipitation  
Precipitation 0.00 in 0.14 in 1.42 in (1997)
Month to date precipitation 0.00 0.27  
Year to date precipitation 18.63 13.84  
Snow  
Snow 0.00 in - 0.00 in ()
Month to date snowfall 0.0  
Since 1 June snowfall 0.0  
Since 1 July snowfall 0.0  
Snow Depth 0.00 in    
Sea Level Pressure  
Sea Level Pressure 30.16 in    
Wind  
Wind Speed 4 mph (ESE)    
Max Wind Speed 10 mph    
Max Gust Speed 16 mph    
Visibility 10 miles    
Events      
T = Trace of Precipitation, MM = Missing Value Source: NWS Daily Summary

Daily Weather History Graph

Daily Weather History Graph

Search for Another Location

Airport:

Trip Planner

Search our weather history database for the weather conditions in past years. The results will help you decide how hot, cold, wet, or windy it might be!

Date:

Astronomy

Jul. 02, 2013 Rise Set
Actual Time 5:13 AM CDT 8:50 PM CDT
Civil Twilight 4:35 AM CDT 9:28 PM CDT
Nautical Twilight 3:45 AM CDT 10:18 PM CDT
Astronomical Twilight 2:37 AM CDT 11:25 PM CDT
Moon 1:25 AM CDT (7/2) 3:57 PM CDT (7/2)
Length of Visible Light 16h 52m
Length of Day
15h 37m
Waning Crescent, 26% of the Moon is Illuminated
Jul 2
Waning Crescent
Jul 8
New
Jul 15
First Quarter
Jul 22
Full
Jul 29
Last Quarter

Hourly Weather History & Observations

Time (CDT) Temp. Dew Point Humidity Pressure Visibility Wind Dir Wind Speed Gust Speed Precip Events Conditions
12:53 AM 55.9 °F 48.9 °F 77% 30.20 in 10.0 mi Calm Calm - N/A   Clear
1:53 AM 52.0 °F 45.0 °F 77% 30.20 in 10.0 mi East 4.6 mph - N/A   Clear
2:53 AM 52.0 °F 45.0 °F 77% 30.19 in 10.0 mi ENE 3.5 mph - N/A   Clear
3:53 AM 50.0 °F 43.0 °F 77% 30.19 in 10.0 mi ENE 4.6 mph - N/A   Partly Cloudy
4:53 AM 50.0 °F 41.0 °F 71% 30.20 in 10.0 mi ENE 3.5 mph - N/A   Scattered Clouds
5:53 AM 50.0 °F 41.0 °F 71% 30.20 in 10.0 mi Calm Calm - N/A   Scattered Clouds
6:53 AM 53.1 °F 42.1 °F 66% 30.21 in 10.0 mi East 5.8 mph - N/A   Partly Cloudy
7:53 AM 57.0 °F 43.0 °F 59% 30.21 in 10.0 mi East 4.6 mph - N/A   Partly Cloudy
9:53 AM 64.9 °F 43.0 °F 45% 30.20 in 10.0 mi ESE 5.8 mph - N/A   Clear
10:53 AM 68.0 °F 45.0 °F 43% 30.19 in 10.0 mi ESE 5.8 mph - N/A   Clear
11:53 AM 70.0 °F 46.9 °F 44% 30.18 in 10.0 mi East 5.8 mph - N/A   Clear
12:53 PM 73.0 °F 46.9 °F 39% 30.17 in 10.0 mi NNW 4.6 mph - N/A   Clear
1:53 PM 73.0 °F 44.1 °F 35% 30.16 in 10.0 mi Calm Calm - N/A   Clear
2:53 PM 73.9 °F 45.0 °F 35% 30.14 in 10.0 mi ESE 4.6 mph - N/A   Clear
3:53 PM 75.9 °F 43.0 °F 31% 30.13 in 10.0 mi Variable 5.8 mph - N/A   Clear
4:53 PM 75.9 °F 37.9 °F 25% 30.12 in 10.0 mi Variable 3.5 mph - N/A   Clear
5:53 PM 75.9 °F 41.0 °F 29% 30.10 in 10.0 mi Calm Calm - N/A   Clear
6:53 PM 73.9 °F 44.1 °F 34% 30.11 in 10.0 mi SE 8.1 mph - N/A   Scattered Clouds
7:53 PM 71.1 °F 46.0 °F 41% 30.11 in 10.0 mi SE 4.6 mph - N/A   Scattered Clouds
8:53 PM 66.0 °F 46.0 °F 48% 30.11 in 10.0 mi SSE 3.5 mph - N/A   Clear
9:53 PM 63.0 °F 46.0 °F 54% 30.13 in 10.0 mi South 5.8 mph - N/A   Clear
10:53 PM 60.1 °F 44.1 °F 55% 30.12 in 10.0 mi South 3.5 mph - N/A   Clear
11:53 PM 52.0 °F 45.0 °F 77% 30.14 in 10.0 mi Calm Calm - N/A   Clear